Location: Bonningues
(50.7927°N, 2.0150°E)
Time: 06:56:41
(UTC+00:00)

Cosmos 676 Rocket - Pass Details

Date: 08 August 2020
Orbit: 755 x 784 km, 74.0° (Epoch: 26 September)

Event Time Altitude Azimuth Distance (km) Brightness Sun altitude
Exits shadow 21:13:57 - 192° (SSW) 2,671 6.5 -14.4°
Reaches altitude 10° 21:14:50 10° 190° (S) 2,329 6.1 -14.5°
Maximum altitude 21:20:05 66° 109° (ESE) 855 4.0 -15.0°
Drops below altitude 10° 21:25:23 10° 29° (NNE) 2,353 6.8 -15.5°
Sets 21:27:48 0° 27° (NNE) 3,285 7.6 -15.8°
